Radiation Dose at Monitoring Post of Fukushima Daiichi Nuclear Power Station
Date,Time,MP-1(microSv/h),MP-2(microSv/h),MP-3(microSv/h),MP-4(microSv/h),MP-5(microSv/h),MP-6(microSv/h),MP-7(microSv/h),MP-8(microSv/h),Wind Direction,Wind Velocity(m/s),Rain
2018/11/02,00:00,0.788,1.197,0.838,1.499,1.085,0.460,0.809,0.766,west,4.2,No
2018/11/02,00:10,0.789,1.197,0.836,1.499,1.089,0.458,0.810,0.767,west,4.1,No
2018/11/02,00:20,0.787,1.198,0.837,1.498,1.087,0.459,0.811,0.767,west,4.7,No
2018/11/02,00:30,0.789,1.197,0.838,1.498,1.086,0.459,0.809,0.766,west,5.2,No
2018/11/02,00:40,0.789,1.198,0.837,1.501,1.089,0.459,0.810,0.766,west,6.6,No
2018/11/02,00:50,0.789,1.197,0.838,1.500,1.085,0.459,0.810,0.766,west,6.2,No
2018/11/02,01:00,0.790,1.196,0.838,1.500,1.086,0.458,0.811,0.766,west,6.5,No
2018/11/02,01:10,0.790,1.197,0.837,1.499,1.087,0.459,0.808,0.765,west,6.0,No
2018/11/02,01:20,0.789,1.197,0.837,1.500,1.086,0.460,0.811,0.766,west,4.6,No
2018/11/02,01:30,0.790,1.195,0.837,1.497,1.086,0.458,0.810,0.765,west,3.8,No
2018/11/02,01:40,0.790,1.198,0.838,1.500,1.085,0.459,0.809,0.766,west,3.8,No
2018/11/02,01:50,0.788,1.198,0.837,1.499,1.084,0.459,0.809,0.766,west-northwest,4.3,No
2018/11/02,02:00,0.790,1.197,0.838,1.498,1.086,0.457,0.809,0.764,west-northwest,4.1,No
2018/11/02,02:10,0.787,1.197,0.838,1.499,1.087,0.459,0.808,0.764,west-northwest,5.2,No
2018/11/02,02:20,0.788,1.196,0.839,1.499,1.084,0.459,0.808,0.764,west-northwest,5.3,No
2018/11/02,02:30,0.789,1.198,0.837,1.499,1.087,0.460,0.812,0.765,west-northwest,4.3,No
2018/11/02,02:40,0.787,1.198,0.836,1.499,1.085,0.459,0.808,0.765,west-northwest,4.8,No
2018/11/02,02:50,0.790,1.195,0.839,1.499,1.084,0.459,0.808,0.764,west-northwest,5.5,No
2018/11/02,03:00,0.788,1.197,0.838,1.499,1.085,0.458,0.808,0.764,west-northwest,3.9,No
2018/11/02,03:10,0.787,1.194,0.840,1.502,1.085,0.458,0.809,0.766,west-northwest,5.3,No
2018/11/02,03:20,0.787,1.195,0.840,1.499,1.086,0.459,0.810,0.764,west-northwest,4.8,No
2018/11/02,03:30,0.787,1.196,0.837,1.497,1.085,0.458,0.810,0.765,west-northwest,4.7,No
2018/11/02,03:40,0.788,1.198,0.838,1.499,1.086,0.459,0.809,0.767,west-northwest,3.1,No
2018/11/02,03:50,0.789,1.198,0.835,1.500,1.084,0.461,0.809,0.766,west-northwest,3.4,No
2018/11/02,04:00,0.787,1.198,0.837,1.499,1.086,0.458,0.810,0.765,west-northwest,4.1,No
2018/11/02,04:10,0.788,1.196,0.836,1.500,1.085,0.459,0.809,0.764,west-northwest,4.8,No
2018/11/02,04:20,0.789,1.194,0.835,1.501,1.085,0.458,0.809,0.765,west-northwest,5.1,No
2018/11/02,04:30,0.787,1.196,0.835,1.499,1.085,0.459,0.808,0.765,west-northwest,5.7,No
2018/11/02,04:40,0.788,1.195,0.838,1.500,1.085,0.459,0.809,0.766,northwest,4.5,No
2018/11/02,04:50,0.786,1.196,0.838,1.499,1.084,0.458,0.811,0.765,northwest,4.3,No
2018/11/02,05:00,0.788,1.196,0.837,1.501,1.082,0.458,0.808,0.765,northwest,3.6,No
2018/11/02,05:10,0.786,1.195,0.838,1.497,1.084,0.458,0.809,0.767,northwest,4.2,No
2018/11/02,05:20,0.788,1.197,0.836,1.499,1.083,0.457,0.811,0.764,west-northwest,3.8,No
2018/11/02,05:30,0.785,1.195,0.836,1.496,1.085,0.460,0.809,0.764,west-northwest,4.1,No
2018/11/02,05:40,0.786,1.194,0.837,1.497,1.084,0.458,0.808,0.767,west,2.6,No
2018/11/02,05:50,0.787,1.194,0.839,1.496,1.085,0.459,0.808,0.764,west,2.9,No
2018/11/02,06:00,0.787,1.194,0.836,1.497,1.083,0.458,0.809,0.764,west,3.3,No
2018/11/02,06:10,0.787,1.198,0.838,1.496,1.085,0.459,0.807,0.766,west,3.1,No
2018/11/02,06:20,0.787,1.197,0.837,1.499,1.085,0.458,0.809,0.765,west,3.3,No
2018/11/02,06:30,0.788,1.193,0.838,1.497,1.082,0.458,0.808,0.765,northwest,3.3,No
2018/11/02,06:40,0.786,1.196,0.835,1.497,1.084,0.458,0.808,0.765,west-northwest,3.6,No
2018/11/02,06:50,0.787,1.193,0.837,1.496,1.083,0.459,0.809,0.765,west-northwest,4.1,No
2018/11/02,07:00,0.788,1.193,0.837,1.497,1.083,0.459,0.809,0.767,west,3.5,No
2018/11/02,07:10,0.787,1.194,0.837,1.500,1.084,0.459,0.810,0.765,west,4.3,No
2018/11/02,07:20,0.786,1.198,0.838,1.499,1.083,0.458,0.810,0.766,west,3.7,No
2018/11/02,07:30,0.787,1.196,0.836,1.499,1.082,0.460,0.809,0.766,west,2.9,No
2018/11/02,07:40,0.787,1.197,0.836,1.500,1.082,0.459,0.809,0.767,west,3.3,No
2018/11/02,07:50,0.788,1.195,0.835,1.498,1.084,0.459,0.810,0.766,west,3.4,No
2018/11/02,08:00,0.789,1.196,0.836,1.502,1.086,0.459,0.812,0.767,west,3.7,No
2018/11/02,08:10,0.789,1.198,0.836,1.500,1.085,0.458,0.810,0.767,west-northwest,4.2,No
2018/11/02,08:20,0.790,1.196,0.837,1.501,1.084,0.459,0.809,0.766,west-northwest,2.6,No
2018/11/02,08:30,0.789,1.197,0.838,1.499,1.085,0.459,0.810,0.767,west-northwest,1.5,No
2018/11/02,08:40,0.788,1.193,0.837,1.500,1.085,0.458,0.807,0.765,northwest,2.0,No
2018/11/02,08:50,0.790,1.192,0.838,1.500,1.087,0.460,0.808,0.767,west-northwest,1.7,No
2018/11/02,09:00,0.789,1.192,0.839,1.501,1.085,0.460,0.807,0.767,southwest,1.1,No
2018/11/02,09:10,0.792,1.189,0.839,1.500,1.088,0.460,0.808,0.767,west-northwest,1.7,No
2018/11/02,09:20,0.792,1.196,0.838,1.502,1.087,0.460,0.809,0.768,northwest,1.7,No
2018/11/02,09:30,0.789,1.193,0.838,1.500,1.087,0.461,0.809,0.768,northwest,4.2,No
2018/11/02,09:40,0.792,1.187,0.838,1.500,1.088,0.461,0.809,0.766,northwest,3.3,No
2018/11/02,09:50,0.792,1.190,0.838,1.498,1.088,0.459,0.809,0.768,north-northwest,2.6,No
2018/11/02,10:00,0.791,1.195,0.841,1.497,1.087,0.458,0.810,0.768,north-northwest,0.9,No
2018/11/02,10:10,0.788,1.192,0.840,1.500,1.085,0.459,0.809,0.768,north-northwest,0.9,No
2018/11/02,10:20,0.790,1.188,0.840,1.500,1.088,0.459,0.808,0.768,north,3.2,No
2018/11/02,10:30,0.790,1.191,0.838,1.500,1.086,0.457,0.808,0.766,northeast,3.7,No
2018/11/02,10:40,0.789,1.195,0.839,1.503,1.084,0.459,0.810,0.766,east-northeast,3.8,No
2018/11/02,10:50,0.791,1.194,0.839,1.503,1.086,0.457,0.809,0.766,northeast,4.0,No
2018/11/02,11:00,0.789,1.192,0.837,1.503,1.086,0.457,0.809,0.766,northeast,4.1,No
2018/11/02,11:10,0.790,1.197,0.842,1.501,1.087,0.457,0.810,0.764,northeast,3.3,No
2018/11/02,11:20,0.789,1.194,0.840,1.500,1.087,0.458,0.809,0.763,east-northeast,3.4,No
2018/11/02,11:30,0.791,1.194,0.842,1.501,1.088,0.458,0.810,0.765,northeast,4.0,No
2018/11/02,11:40,0.790,1.195,0.840,1.500,1.090,0.457,0.809,0.766,northeast,3.6,No
2018/11/02,11:50,0.791,1.195,0.841,1.502,1.090,0.457,0.811,0.765,northeast,3.8,No
2018/11/02,12:00,0.790,1.196,0.840,1.502,1.088,0.459,0.809,0.766,east-northeast,2.6,No
2018/11/02,12:10,0.790,1.197,0.839,1.501,1.089,0.459,0.810,0.765,east-northeast,2.6,No
2018/11/02,12:20,0.793,1.197,0.837,1.500,1.089,0.459,0.811,0.766,east-northeast,3.3,No
2018/11/02,12:30,0.790,1.198,0.837,1.502,1.087,0.460,0.810,0.766,east,2.9,No
2018/11/02,12:40,0.790,1.194,0.838,1.504,1.091,0.460,0.810,0.766,northeast,3.0,No
2018/11/02,12:50,0.790,1.195,0.838,1.502,1.090,0.460,0.810,0.765,east-northeast,3.1,No
2018/11/02,13:00,0.793,1.194,0.839,1.503,1.089,0.460,0.810,0.764,northeast,2.5,No
2018/11/02,13:10,0.792,1.194,0.836,1.499,1.087,0.460,0.811,0.762,east-northeast,2.9,No
2018/11/02,13:20,0.790,1.195,0.839,1.502,1.090,0.458,0.811,0.763,east-northeast,3.6,No
2018/11/02,13:30,0.789,1.198,0.838,1.502,1.089,0.461,0.810,0.763,northeast,2.8,No
2018/11/02,13:40,0.791,1.196,0.839,1.502,1.090,0.460,0.809,0.765,east-northeast,2.6,No
2018/11/02,13:50,0.791,1.196,0.838,1.500,1.089,0.460,0.810,0.762,east-northeast,2.6,No
2018/11/02,14:00,0.791,1.194,0.839,1.502,1.090,0.459,0.808,0.764,northeast,2.3,No
2018/11/02,14:10,0.792,1.194,0.840,1.502,1.088,0.459,0.811,0.764,east-northeast,2.6,No
2018/11/02,14:20,0.790,1.192,0.840,1.501,1.090,0.458,0.809,0.762,east-northeast,2.6,No
2018/11/02,14:30,0.790,1.193,0.839,1.502,1.090,0.458,0.809,0.764,northeast,2.6,No
2018/11/02,14:40,0.790,1.194,0.839,1.503,1.090,0.459,0.810,0.763,east,1.5,No
2018/11/02,14:50,0.791,1.194,0.838,1.505,1.089,0.460,0.809,0.765,east,1.4,No
2018/11/02,15:00,0.791,1.197,0.840,1.501,1.087,0.461,0.810,0.763,east-northeast,1.4,No
2018/11/02,15:10,0.791,1.193,0.838,1.501,1.088,0.462,0.810,0.765,east,1.4,No
2018/11/02,15:20,0.791,1.194,0.839,1.502,1.088,0.461,0.811,0.764,southeast,1.2,No
2018/11/02,15:30,0.789,1.198,0.839,1.502,1.090,0.461,0.809,0.765,east,1.5,No
2018/11/02,15:40,0.790,1.198,0.839,1.503,1.089,0.460,0.810,0.766,east-southeast,0.9,No
2018/11/02,15:50,0.791,1.200,0.841,1.502,1.090,0.461,0.812,0.765,east-northeast,1.4,No
2018/11/02,16:00,0.791,1.201,0.844,1.501,1.092,0.461,0.811,0.769,southeast,1.2,No
2018/11/02,16:10,0.792,1.199,0.840,1.504,1.092,0.460,0.811,0.766,south-southeast,1.4,No
2018/11/02,16:20,0.793,1.203,0.840,1.503,1.094,0.461,0.812,0.767,south-southwest,0.8,No
2018/11/02,16:30,0.794,1.201,0.842,1.501,1.092,0.461,0.812,0.767,south,0.9,No
2018/11/02,16:40,0.794,1.201,0.841,1.504,1.090,0.460,0.811,0.767,south-southeast,0.9,No
2018/11/02,16:50,0.792,1.202,0.841,1.502,1.091,0.461,0.811,0.765,south-southwest,1.2,No
2018/11/02,17:00,0.794,1.204,0.842,1.504,1.094,0.461,0.810,0.768,southwest,1.5,No
2018/11/02,17:10,0.792,1.201,0.841,1.502,1.092,0.462,0.809,0.768,southwest,1.9,No
2018/11/02,17:20,0.792,1.203,0.842,1.503,1.093,0.462,0.809,0.768,southwest,1.7,No
2018/11/02,17:30,0.793,1.200,0.840,1.503,1.092,0.462,0.811,0.767,southwest,2.0,No
2018/11/02,17:40,0.793,1.199,0.840,1.503,1.092,0.462,0.812,0.766,southwest,2.0,No
2018/11/02,17:50,0.793,1.203,0.841,1.504,1.091,0.462,0.810,0.766,southwest,2.2,No
2018/11/02,18:00,0.793,1.204,0.841,1.503,1.092,0.462,0.811,0.767,southwest,2.0,No
2018/11/02,18:10,0.792,1.203,0.841,1.504,1.090,0.461,0.809,0.767,southwest,2.3,No
2018/11/02,18:20,0.791,1.200,0.843,1.504,1.091,0.461,0.811,0.765,south-southwest,2.6,No
2018/11/02,18:30,0.791,1.202,0.842,1.503,1.092,0.461,0.811,0.767,southwest,3.1,No
2018/11/02,18:40,0.794,1.201,0.842,1.503,1.093,0.460,0.809,0.766,southwest,2.0,No
2018/11/02,18:50,0.793,1.204,0.839,1.505,1.091,0.460,0.810,0.767,west-southwest,1.7,No
2018/11/02,19:00,0.791,1.202,0.841,1.503,1.091,0.461,0.808,0.767,southwest,2.3,No
2018/11/02,19:10,0.794,1.202,0.841,1.504,1.090,0.461,0.810,0.769,west,2.9,No
2018/11/02,19:20,0.793,1.199,0.841,1.503,1.090,0.462,0.809,0.766,west,3.0,No
2018/11/02,19:30,0.792,1.204,0.840,1.502,1.091,0.459,0.809,0.766,west-northwest,2.6,No
2018/11/02,19:40,0.793,1.203,0.840,1.504,1.091,0.461,0.809,0.766,west-northwest,1.9,No
2018/11/02,19:50,0.792,1.200,0.841,1.501,1.090,0.461,0.809,0.768,northwest,2.3,No
2018/11/02,20:00,0.792,1.201,0.838,1.504,1.092,0.461,0.810,0.767,west-northwest,2.6,No
2018/11/02,20:10,0.793,1.199,0.841,1.502,1.089,0.458,0.810,0.765,northwest,2.5,No
2018/11/02,20:20,0.792,1.200,0.839,1.502,1.089,0.459,0.809,0.766,northwest,2.9,No
2018/11/02,20:30,0.794,1.202,0.839,1.503,1.090,0.459,0.808,0.767,west-northwest,4.0,No
2018/11/02,20:40,0.792,1.198,0.841,1.503,1.090,0.460,0.810,0.765,west-northwest,4.0,No
2018/11/02,20:50,0.790,1.200,0.840,1.502,1.089,0.459,0.809,0.766,west-northwest,4.3,No
2018/11/02,21:00,0.790,1.200,0.842,1.503,1.090,0.460,0.809,0.765,west-northwest,3.5,No
2018/11/02,21:10,0.789,1.200,0.839,1.502,1.087,0.459,0.810,0.765,west-northwest,3.5,No
2018/11/02,21:20,0.791,1.200,0.840,1.500,1.091,0.459,0.809,0.767,west-northwest,4.0,No
2018/11/02,21:30,0.791,1.198,0.840,1.502,1.090,0.460,0.810,0.767,west-northwest,5.4,No
2018/11/02,21:40,0.791,1.200,0.841,1.503,1.090,0.459,0.809,0.766,west-northwest,5.9,No
2018/11/02,21:50,0.791,1.199,0.838,1.501,1.087,0.459,0.809,0.766,west-northwest,6.4,No
2018/11/02,22:00,0.790,1.198,0.839,1.499,1.089,0.459,0.809,0.765,west-northwest,7.0,No
2018/11/02,22:10,0.789,1.198,0.841,1.500,1.089,0.460,0.811,0.764,west-northwest,5.5,No
2018/11/02,22:20,0.791,1.198,0.838,1.501,1.088,0.459,0.810,0.765,west-northwest,5.4,No
2018/11/02,22:30,0.791,1.198,0.837,1.502,1.091,0.459,0.810,0.765,west-northwest,5.2,No
2018/11/02,22:40,0.790,1.199,0.840,1.504,1.089,0.461,0.810,0.765,west-northwest,4.9,No
2018/11/02,22:50,0.791,1.196,0.839,1.500,1.089,0.459,0.810,0.766,west-northwest,5.6,No
2018/11/02,23:00,0.790,1.199,0.838,1.501,1.089,0.460,0.810,0.764,west-northwest,5.1,No
2018/11/02,23:10,0.789,1.197,0.838,1.500,1.087,0.459,0.808,0.766,west-northwest,4.3,No
2018/11/02,23:20,0.790,1.197,0.838,1.500,1.090,0.459,0.809,0.766,west-northwest,3.8,No
2018/11/02,23:30,0.790,1.199,0.837,1.503,1.089,0.460,0.810,0.766,west-northwest,2.9,No
2018/11/02,23:40,0.790,1.198,0.837,1.499,1.089,0.459,0.810,0.765,west-northwest,2.6,No
2018/11/02,23:50,0.790,1.198,0.840,1.501,1.088,0.460,0.809,0.765,west,2.3,No
